Stations météo

réclame
Mon MeteoGroup
Abbeville, France (7005): Température de l'air & dewpoint: 29.07.2020 19:00:00 - 04.08.2020 19:00:00 (CEST)Abbeville, France (7005): Température de l'air 5cm: 29.07.2020 19:00:00 - 04.08.2020 19:00:00 (CEST)Abbeville, France (7005): Température de l'air -20cm & Température de l'air -100cm: 29.07.2020 19:00:00 - 04.08.2020 19:00:00 (CEST)Abbeville, France (7005): Vitesse du vent & gusts: 29.07.2020 19:00:00 - 04.08.2020 19:00:00 (CEST)Abbeville, France (7005): Direction du vent: 29.07.2020 19:00:00 - 04.08.2020 19:00:00 (CEST)Abbeville, France (7005): reduced air pressure: 29.07.2020 19:00:00 - 04.08.2020 19:00:00 (CEST)Abbeville, France (7005): visibility: 29.07.2020 19:00:00 - 04.08.2020 19:00:00 (CEST)Abbeville, France (7005): Ensoleillement: 29.07.2020 19:00:00 - 04.08.2020 19:00:00 (CEST)Abbeville, France (7005): Quantités de précipitations: 29.07.2020 19:00:00 - 04.08.2020 19:00:00 (CEST)
Date & Time tt [°C] td [°C] tt 5cm [°C] tt -20cm [°C] tt -100cm [°C] ff [km/h] ff [knt] fx [km/h] fx [knt] dd ppp [hPa] vv [km] sd [min] rr [mm]
04.08.2020 19:00:00 20,1 9,3 22,0 20,7 17,0 16 9 29 16 WNW 1017,2 20 50 0,0
04.08.2020 18:00:00 21,0 9,6 26,0 20,5 17,0 19 10 34 19 NW 1017,5 20 60 0,0
04.08.2020 17:00:00 21,6 9,5 26,2 20,0 17,0 21 11 37 20 WNW 1017,7 20 60 0,0
04.08.2020 16:00:00 21,9 10,1 27,0 19,4 17,0 24 13 39 21 WNW 1018,0 20 60 0,0
04.08.2020 15:00:00 22,2 10,0 24,7 18,9 17,0 20 11 34 19 W 1018,1 20 55 0,0
04.08.2020 14:00:00 22,4 10,8 22,2 18,3 17,0 18 10 31 17 WNW 1018,2 20 38 0,0
04.08.2020 13:00:00 21,5 10,0 22,4 17,8 17,0 18 10 27 14 W 1018,2 20 31 0,0
04.08.2020 12:00:00 21,8 10,3 25,3 17,3 17,0 8 5 20 11 S 1018,2 20 57 0,0
04.08.2020 11:00:00 19,8 11,8 21,6 17,0 17,0 10 5 21 12 SSE 1018,6 20 60 0,0
04.08.2020 10:00:00 17,5 12,4 18,8 17,0 17,0 11 6 21 11 SSE 1018,9 20 60 0,0
04.08.2020 09:00:00 14,8 13,0 14,5 17,1 17,0 9 5 14 7 SSE 1018,6 20 60 0,0
04.08.2020 08:00:00 11,9 11,4 10,5 17,3 17,0 7 4 10 5 SSE 1018,3 12 7 0,2
04.08.2020 07:00:00 10,7 10,4 8,8 17,5 17,0 5 3 9 5 SSE 1018,0 13 1 0,0
04.08.2020 06:00:00 10,3 9,8 8,8 17,7 17,0 8 5 14 7 E 1017,8 2,9 0 0,0
04.08.2020 05:00:00 10,9 10,3 9,1 17,9 17,0 8 4 13 7 ESE 1017,7 6 0 0,0
04.08.2020 04:00:00 11,6 11,1 9,4 18,1 17,0 8 4 10 5 E 1017,7 8 0 0,0
04.08.2020 03:00:00 12,0 11,2 10,3 18,4 17,0 6 3 8 5 ESE 1017,8 11 0 0,0
04.08.2020 02:00:00 12,4 11,6 10,0 18,7 17,0 7 4 12 6 ESE 1018,0 13 0 0,0
04.08.2020 01:00:00 13,3 11,9 11,0 18,9 17,0 2 1 11 6 SE 1017,6 18 0 0,0
04.08.2020 00:00:00 13,9 12,1 11,0 19,2 17,0 9 5 12 6 W 1017,7 20 0 0,0
03.08.2020 23:00:00 13,8 11,7 11,0 19,5 17,0 7 4 10 6 W 1017,4 20 0 0,0
03.08.2020 22:00:00 14,6 11,7 12,7 19,6 17,0 10 5 22 12 WNW 1017,0 20 0 0,0
03.08.2020 21:00:00 17,0 12,1 16,5 19,7 17,0 18 10 29 16 WNW 1016,3 20 39 0,0
03.08.2020 20:00:00 18,8 11,8 19,5 19,8 17,0 20 11 40 22 WNW 1015,8 20 52 0,0
03.08.2020 19:00:00 19,7 11,2 17,5 19,8 17,0 25 13 37 20 WNW 1015,4 20 39 0,0
03.08.2020 18:00:00 17,1 13,4 17,5 19,8 17,0 4 2 17 9 SSW 1015,6 20 0 0,0
03.08.2020 17:00:00 17,2 13,7 17,7 19,8 17,0 11 6 19 10 ENE 1015,4 20 3 0,0
03.08.2020 16:00:00 16,5 14,1 16,2 19,7 17,0 6 3 26 14 N 1015,5 20 0 0,8
03.08.2020 15:00:00 18,9 12,2 20,1 19,3 17,0 19 10 36 19 NNW 1015,0 20 10 0,0
03.08.2020 14:00:00 20,7 12,9 21,6 19,0 17,0 24 13 39 21 WNW 1014,7 20 34 0,0
03.08.2020 13:00:00 20,8 12,7 20,6 18,8 17,0 20 11 32 17 W 1014,9 20 23 0,0
03.08.2020 12:00:00 18,6 12,6 19,7 18,7 17,0 19 10 29 15 W 1015,0 20 1 0,0
03.08.2020 11:00:00 18,2 12,9 17,9 18,6 17,0 15 8 24 13 WNW 1014,8 20 0 0,0
03.08.2020 10:00:00 17,5 13,6 18,3 18,5 17,0 11 6 18 10 W 1015,0 20 0 0,0
03.08.2020 09:00:00 16,0 13,7 15,3 18,6 17,0 5 3 11 6 WSW 1014,9 20 0 0,0
03.08.2020 08:00:00 14,3 12,8 13,6 18,8 17,0 4 2 9 5 S 1014,9 20 10 0,0
03.08.2020 07:00:00 13,3 12,2 11,9 18,9 17,0 5 3 9 5 SSE 1014,9 20 9 0,0
03.08.2020 06:00:00 12,7 11,6 11,6 19,2 17,0 4 2 9 5 SSW 1015,2 20 0 0,0
03.08.2020 05:00:00 13,0 12,1 11,9 19,4 17,0 5 3 11 6 SSW 1015,5 20 0 0,0
03.08.2020 04:00:00 12,9 11,6 12,0 19,7 17,0 4 2 11 6 SSW 1015,7 20 0 0,0
03.08.2020 03:00:00 13,2 11,6 12,2 20,0 17,0 5 3 13 7 SW 1016,2 10 0 0,0
03.08.2020 02:00:00 13,6 12,0 11,7 20,3 17,0 7 4 12 6 WSW 1016,5 20 0 0,0
03.08.2020 01:00:00 13,4 11,5 11,7 20,6 16,9 5 3 9 5 SW 1016,9 20 0 0,0
03.08.2020 00:00:00 13,5 11,4 11,6 21,0 16,9 4 2 9 5 SW 1017,2 20 0 0,0
02.08.2020 23:00:00 14,1 11,1 12,2 21,3 16,9 3 2 10 6 S 1017,6 20 0 0,0
02.08.2020 22:00:00 15,3 11,3 13,8 21,6 16,9 8 4 20 11 WSW 1017,8 20 4 0,0
02.08.2020 21:00:00 16,8 11,1 16,3 21,7 16,9 14 8 30 16 W 1017,7 20 24 0,0
02.08.2020 20:00:00 18,4 10,7 19,8 21,7 16,9 20 11 34 18 W 1017,5 20 60 0,0
02.08.2020 19:00:00 19,6 9,8 22,6 21,5 16,9 21 11 33 18 W 1017,6 20 60 0,0
02.08.2020 18:00:00 19,8 9,9 21,7 21,2 16,9 26 14 36 20 W 1017,8 20 56 0,0
02.08.2020 17:00:00 19,9 10,9 21,9 20,9 16,9 25 13 38 21 W 1018,0 20 52 0,0
02.08.2020 16:00:00 20,3 10,1 21,2 20,5 16,9 23 12 45 24 WNW 1018,2 20 31 0,0
02.08.2020 15:00:00 20,4 9,9 21,7 20,2 16,9 22 12 36 19 WNW 1018,4 20 22 0,0
02.08.2020 14:00:00 19,4 9,8 20,2 20,0 16,9 23 12 37 20 WNW 1018,6 20 18 0,0
02.08.2020 13:00:00 18,8 11,1 20,7 19,8 16,9 22 12 36 19 WNW 1018,7 20 20 0,0
02.08.2020 12:00:00 19,2 9,4 19,1 19,6 16,9 23 13 37 20 WNW 1018,7 20 25 0,0
02.08.2020 11:00:00 18,6 9,9 18,0 19,6 16,9 24 13 38 21 WNW 1018,6 20 34 0,0
02.08.2020 10:00:00 17,7 10,1 16,6 19,7 16,9 23 13 35 19 WNW 1018,3 20 28 0,0
02.08.2020 09:00:00 17,2 10,6 16,8 19,8 16,9 23 12 36 19 W 1018,1 20 53 0,0
02.08.2020 08:00:00 15,6 11,2 13,5 20,0 16,8 15 8 22 12 W 1018,2 20 1 0,0
02.08.2020 07:00:00 13,9 11,1 12,4 20,3 16,9 13 7 19 10 WNW 1017,9 20 0 0,0
02.08.2020 06:00:00 14,9 11,3 13,7 20,6 16,9 10 5 27 14 W 1017,8 20 0 0,0
02.08.2020 05:00:00 16,5 12,6 15,7 20,8 16,8 14 7 23 13 W 1017,3 20 0 0,0
02.08.2020 04:00:00 16,1 14,1 14,8 21,1 16,8 14 8 21 11 W 1017,0 20 0 0,0
02.08.2020 03:00:00 15,6 13,8 14,5 21,4 16,8 15 8 26 14 W 1017,1 20 0 0,0
02.08.2020 02:00:00 15,2 13,6 13,9 21,8 16,8 9 5 16 9 WSW 1017,4 20 0 0,0
02.08.2020 01:00:00 15,5 13,7 14,5 22,1 16,8 10 6 18 10 W 1017,8 20 0 0,0
02.08.2020 00:00:00 16,5 14,7 15,6 22,5 16,8 13 7 24 13 W 1018,0 20 0 0,0
01.08.2020 23:00:00 16,5 14,1 15,2 22,8 16,8 11 6 18 10 W 1017,4 20 0 0,0
01.08.2020 22:00:00 17,3 13,8 16,2 23,1 16,8 8 4 19 10 WSW 1017,5 20 0 0,0
01.08.2020 21:00:00 19,2 13,8 18,6 23,2 16,8 13 7 24 13 W 1017,5 20 41 0,0
01.08.2020 20:00:00 20,7 13,6 22,5 23,3 16,8 19 10 29 16 W 1017,4 20 60 0,0
01.08.2020 19:00:00 21,9 13,8 23,8 23,1 16,8 19 10 32 18 W 1017,5 20 55 0,0
01.08.2020 18:00:00 22,2 13,5 25,8 22,9 16,8 23 12 34 18 W 1017,7 20 60 0,0
01.08.2020 17:00:00 22,4 14,3 27,1 22,5 16,8 22 12 36 19 WNW 1017,5 20 60 0,0
01.08.2020 16:00:00 22,4 14,3 26,8 22,0 16,7 22 12 35 19 WNW 1017,6 20 60 0,0
01.08.2020 15:00:00 21,8 14,4 26,5 21,5 16,7 22 12 35 19 W 1017,8 20 60 0,0
01.08.2020 14:00:00 21,8 14,4 24,9 21,1 16,7 23 12 37 20 WNW 1018,0 20 57 0,0
01.08.2020 13:00:00 21,2 14,4 24,9 20,8 16,7 22 12 37 20 W 1018,0 20 56 0,0
01.08.2020 12:00:00 21,5 14,4 22,9 20,6 16,7 19 10 34 19 WNW 1017,5 20 51 0,0
01.08.2020 11:00:00 20,6 15,6 19,3 20,7 16,7 19 10 30 16 W 1017,1 20 16 0,0
01.08.2020 10:00:00 18,7 16,3 18,4 20,8 16,7 20 11 31 17 W 1016,8 20 0 0,0
01.08.2020 09:00:00 18,3 15,7 17,9 20,9 16,7 18 10 29 16 W 1016,6 20 0 0,0
01.08.2020 08:00:00 18,0 16,0 17,3 21,1 16,7 17 9 30 16 W 1016,4 20 0 0,0
01.08.2020 07:00:00 17,5 16,4 16,6 21,3 16,7 11 6 21 11 W 1016,3 20 0 0,0
01.08.2020 06:00:00 17,9 17,4 17,4 21,5 16,7 11 6 16 9 W 1016,0 20 0 0,0
01.08.2020 05:00:00 17,7 17,4 17,1 21,7 16,7 7 4 16 9 WSW 1015,9 3,0 0 0,0
01.08.2020 04:00:00 17,3 16,8 17,0 21,9 16,7 8 4 23 12 WSW 1015,9 2,1 0 0,0
01.08.2020 03:00:00 17,3 16,7 17,1 22,2 16,7 11 6 24 13 W 1015,5 6 0 0,0
01.08.2020 02:00:00 17,5 16,7 17,4 22,5 16,7 14 8 34 18 W 1015,4 19 0 0,0
01.08.2020 01:00:00 18,0 16,7 17,8 22,8 16,6 20 11 35 19 W 1015,3 19 0 0,0
01.08.2020 00:00:00 18,1 15,7 17,7 23,2 16,7 19 10 28 15 W 1014,9 20 0 0,0
31.07.2020 23:00:00 18,7 15,2 18,1 23,5 16,6 12 6 21 11 W 1014,4 20 0 0,0
31.07.2020 22:00:00 19,3 15,2 18,7 23,8 16,6 13 7 28 15 W 1014,2 20 9 0,0
31.07.2020 21:00:00 21,4 15,0 21,4 24,1 16,6 16 9 26 14 W 1013,7 20 34 0,0
31.07.2020 20:00:00 22,5 14,3 22,9 24,2 16,6 13 7 29 15 W 1013,0 20 0 0,0
31.07.2020 19:00:00 24,9 15,5 25,1 24,2 16,6 22 12 43 23 WNW 1012,3 20 0 0,0
31.07.2020 18:00:00 28,2 14,4 29,0 24,0 16,6 29 16 55 30 W 1012,1 20 0 0,0
31.07.2020 17:00:00 37,6 12,9 38,2 23,3 16,6 17 9 39 21 SSW 1010,6 19 34 0,0
31.07.2020 16:00:00 38,3 14,2 40,3 22,5 16,6 13 7 35 19 S 1010,5 10 42 0,0
31.07.2020 15:00:00 37,2 13,3 39,8 21,8 16,6 19 10 34 18 SE 1010,7 20 58 0,0
31.07.2020 14:00:00 35,2 12,8 38,2 21,0 16,6 16 9 34 18 SE 1011,3 20 60 0,0
31.07.2020 13:00:00 33,2 12,2 35,0 20,4 16,6 19 10 30 16 SE 1012,0 20 60 0,0
31.07.2020 12:00:00 30,3 11,8 31,0 20,0 16,6 17 9 27 15 ESE 1012,5 20 60 0,0
31.07.2020 11:00:00 27,1 11,2 29,1 19,7 16,6 17 9 29 16 ESE 1012,9 20 60 0,0
31.07.2020 10:00:00 25,7 9,1 26,3 19,7 16,6 21 11 31 17 SE 1013,5 20 60 0,0
31.07.2020 09:00:00 23,3 10,4 21,9 19,8 16,6 15 8 24 13 ESE 1013,5 20 60 0,0
31.07.2020 08:00:00 20,0 10,7 18,6 20,1 16,6 13 7 19 10 ESE 1013,9 20 11 0,0
31.07.2020 07:00:00 17,7 10,1 15,6 20,4 16,6 10 5 14 8 E 1014,1 20 0 0,0
31.07.2020 06:00:00 17,4 10,0 16,0 20,7 16,6 9 5 14 8 ESE 1014,4 20 0 0,0
31.07.2020 05:00:00 17,5 10,1 16,5 21,0 16,6 10 5 14 8 E 1014,6 20 0 0,0
31.07.2020 04:00:00 18,3 10,4 16,7 21,4 16,6 8 5 11 6 ESE 1015,4 20 0 0,0
31.07.2020 03:00:00 19,4 10,1 16,2 21,8 16,6 8 4 13 7 SE 1015,9 20 0 0,0
31.07.2020 02:00:00 19,9 10,3 18,9 22,1 16,6 8 5 18 10 ESE 1016,0 20 0 0,0
31.07.2020 01:00:00 20,4 10,2 19,4 22,5 16,6 11 6 18 10 E 1016,1 20 0 0,0
31.07.2020 00:00:00 21,4 9,6 19,1 23,0 16,6 14 7 18 10 E 1016,2 20 0 0,0
30.07.2020 23:00:00 22,2 9,4 19,7 23,3 16,6 11 6 15 8 E 1016,1 20 0 0,0
30.07.2020 22:00:00 23,4 8,3 20,2 23,6 16,6 9 5 12 6 ENE 1015,8 20 0 0,0
30.07.2020 21:00:00 27,6 8,0 26,9 23,7 16,6 9 5 19 11 E 1015,7 20 42 0,0
30.07.2020 20:00:00 29,3 7,8 31,9 23,6 16,6 11 6 23 12 E 1015,8 20 60 0,0
30.07.2020 19:00:00 29,8 7,7 33,0 23,3 16,6 14 7 25 14 E 1016,0 20 60 0,0
30.07.2020 18:00:00 30,1 8,5 34,4 22,7 16,6 9 5 23 12 E 1016,7 20 60 0,0
30.07.2020 17:00:00 30,0 7,2 35,2 22,0 16,6 9 5 21 11 ENE 1017,1 20 60 0,0
30.07.2020 16:00:00 29,3 7,8 33,8 21,1 16,6 8 4 24 13 E 1017,6 20 60 0,0
30.07.2020 15:00:00 28,7 9,4 34,2 20,2 16,6 8 5 21 11 SE 1018,2 20 60 0,0
30.07.2020 14:00:00 27,3 9,6 33,0 19,3 16,6 8 5 18 10 E 1018,7 20 60 0,0
30.07.2020 13:00:00 26,7 10,4 32,0 18,5 16,6 6 4 19 10 S 1019,5 20 60 0,0
30.07.2020 12:00:00 25,3 11,1 29,3 18,0 16,6 7 4 19 10 S 1019,9 20 60 0,0
30.07.2020 11:00:00 23,2 10,9 25,7 17,6 16,6 6 3 13 7 S 1020,2 20 60 0,0
30.07.2020 10:00:00 20,2 11,7 21,8 17,5 16,6 6 3 12 6 SSE 1020,3 20 60 0,0
30.07.2020 09:00:00 17,5 10,6 15,9 17,7 16,6 5 3 8 5 E 1020,2 20 57 0,0
30.07.2020 08:00:00 13,5 9,3 12,2 17,9 16,6 6 3 9 5 ESE 1020,6 20 11 0,0
30.07.2020 07:00:00 11,4 8,8 9,0 18,2 16,6 4 2 8 4 ESE 1020,5 20 0 0,0
30.07.2020 06:00:00 10,6 8,5 8,4 18,5 16,6 8 4 10 6 ESE 1020,4 20 0 0,0
30.07.2020 05:00:00 9,9 7,8 7,9 18,8 16,6 6 3 7 4 ENE 1020,6 20 0 0,0
30.07.2020 04:00:00 11,6 9,3 8,4 19,2 16,6 3 2 7 4 SSW 1020,6 20 0 0,0
30.07.2020 03:00:00 11,8 8,8 9,1 19,5 16,6 2 1 10 5 SW 1020,9 20 0 0,0
30.07.2020 02:00:00 11,9 9,1 9,4 19,9 16,6 6 3 11 6 ESE 1021,0 20 0 0,0
30.07.2020 01:00:00 12,6 8,9 9,6 20,4 16,6 3 2 5 3 NW 1021,1 20 0 0,0
30.07.2020 00:00:00 13,6 9,2 10,7 20,8 16,6 2 1 4 2 W 1021,1 20 0 0,0
29.07.2020 23:00:00 14,3 9,1 11,4 21,1 16,6 2 1 6 4 WNW 1021,0 20 0 0,0
29.07.2020 22:00:00 15,4 9,3 12,5 21,4 16,6 4 2 8 4 WNW 1020,8 20 0 0,0
29.07.2020 21:00:00 17,8 8,4 17,5 21,5 16,6 7 4 16 9 NW 1020,6 20 35 0,0
29.07.2020 20:00:00 19,7 8,4 21,9 21,5 16,6 13 7 26 14 WNW 1020,6 20 60 0,0
29.07.2020 19:00:00 20,3 8,9 23,7 21,3 16,6 19 11 28 15 WNW 1020,6 20 60 0,0

tt = Température de l'air
td = dewpoint
tt 5cm = Température de l'air 5cm
tt -20cm = Température de l'air -20cm
tt -100cm = Température de l'air -100cm
ff = Vitesse du vent
fx = gusts
dd = Direction du vent
ppp = reduced air pressure
vv = visibility
sd = Ensoleillement
rr = Quantités de précipitations

stations d'obs. à proximité